This is the latest recevied weather packets stored in our database for station/object DO1SC. If no packets are shown the sender has not sent any weather packets the latest 10 day(s).
| Time | Temp. | Humidity | Pressure | Rain* | Wind** | Luminosity | Snow |
|---|---|---|---|---|---|---|---|
| 1777363521 | 10.56° C | 56% | 1022.2 hPa | - | - | 432 W/m² | - |
| 1777362933 | 10° C | 57% | 1022.4 hPa | - | - | 399 W/m² | - |
| 1777362324 | 9.44° C | 61% | 1022.2 hPa | - | - | 339 W/m² | - |
| 1777361716 | 8.89° C | 62% | 1022.3 hPa | - | - | 367 W/m² | - |
| 1777361128 | 8.33° C | 62% | 1022.2 hPa | - | - | 289 W/m² | - |
| 1777360519 | 8.33° C | 62% | 1022.2 hPa | - | - | 301 W/m² | - |
| 1777359931 | 7.78° C | 63% | 1022.1 hPa | - | - | 279 W/m² | - |
| 1777359323 | 7.22° C | 64% | 1022 hPa | - | - | 193 W/m² | - |
| 1777358129 | 7.22° C | 65% | 1022 hPa | - | - | 145 W/m² | - |
| 1777357517 | 6.67° C | 65% | 1022 hPa | - | - | 119 W/m² | - |
| 1777356930 | 6.67° C | 64% | 1021.9 hPa | - | - | 87 W/m² | - |
| 1777356321 | 6.67° C | 63% | 1021.8 hPa | - | - | 74 W/m² | - |
| 1777355733 | 6.67° C | 63% | 1021.8 hPa | - | - | 76 W/m² | - |
| 1777355127 | 6.11° C | 63% | 1021.8 hPa | - | - | 77 W/m² | - |
| 1777354536 | 6.11° C | 63% | 1021.9 hPa | - | - | 74 W/m² | - |
| 1777353927 | 6.11° C | 64% | 1021.7 hPa | - | - | 65 W/m² | - |
| 1777353319 | 5.56° C | 65% | 1021.7 hPa | - | - | 49 W/m² | - |
| 1777352731 | 5° C | 66% | 1021.8 hPa | - | - | 45 W/m² | - |
| 1777352127 | 5° C | 67% | 1021.6 hPa | - | - | 33 W/m² | - |
| 1777350929 | 4.44° C | 67% | 1021.5 hPa | - | - | 21 W/m² | - |
| 1777350317 | 4.44° C | 68% | 1021.4 hPa | - | - | 14 W/m² | - |
| 1777349729 | 3.89° C | 69% | 1021.3 hPa | - | - | 9 W/m² | - |
| 1777349121 | 3.89° C | 69% | 1021.3 hPa | - | - | 5 W/m² | - |
| 1777348533 | 4.44° C | 68% | 1021.4 hPa | - | - | 2 W/m² | - |
| 1777347927 | 4.44° C | 67% | 1021.3 hPa | - | - | 1 W/m² | - |
* Rain since midnight (hover to see other rain measurements)
** Current wind speed in m/s (hover to see current wind gust speed)